TimeEST,TemperatureF,Dew PointF,Humidity,Sea Level PressureIn,VisibilityMPH,Wind Direction,Wind SpeedMPH,Gust SpeedMPH,PrecipitationIn,Events,Conditions,WindDirDegrees,DateUTC
12:15 AM,35.2,25.0,66,30.21,5.0,SSW,10.4,-,N/A,Snow,Light Snow,200,2012-12-14 05:15:00
12:35 AM,35.2,24.8,66,30.21,3.0,SSW,10.4,-,N/A,Snow,Light Snow,200,2012-12-14 05:35:00
12:55 AM,34.2,25.7,71,30.23,4.0,WNW,6.9,-,N/A,Snow,Light Snow,290,2012-12-14 05:55:00
1:15 AM,32.5,26.1,77,30.23,10.0,SW,4.6,-,N/A,,Clear,230,2012-12-14 06:15:00
1:35 AM,31.5,25.9,80,30.22,5.0,SW,4.6,-,N/A,Snow,Light Snow,220,2012-12-14 06:35:00
1:55 AM,31.6,25.9,79,30.22,10.0,SW,5.8,-,N/A,,Clear,220,2012-12-14 06:55:00
2:15 AM,31.3,25.3,79,30.22,2.5,SSW,5.8,-,N/A,Snow,Light Snow,200,2012-12-14 07:15:00
2:35 AM,31.3,24.8,77,30.23,7.0,SSW,4.6,-,N/A,,Clear,200,2012-12-14 07:35:00
2:55 AM,31.5,24.6,76,30.23,5.0,SSW,4.6,-,N/A,Snow,Light Snow,200,2012-12-14 07:55:00
3:15 AM,31.1,24.4,76,30.24,5.0,South,4.6,-,N/A,Snow,Light Snow,190,2012-12-14 08:15:00
3:35 AM,30.7,24.4,77,30.24,7.0,SSW,4.6,-,N/A,,Clear,200,2012-12-14 08:35:00
3:55 AM,31.3,24.3,75,30.24,10.0,SSW,6.9,-,N/A,,Clear,200,2012-12-14 08:55:00
4:15 AM,32.0,24.3,73,30.24,10.0,SSW,6.9,-,N/A,,Clear,200,2012-12-14 09:15:00
4:35 AM,32.0,24.3,73,30.24,5.0,SSW,6.9,-,N/A,Snow,Light Snow,200,2012-12-14 09:35:00
5:15 AM,32.0,23.9,72,30.23,7.0,South,6.9,-,N/A,,Clear,190,2012-12-14 10:15:00
6:35 AM,30.7,23.7,75,30.23,5.0,South,5.8,-,N/A,Snow,Light Snow,190,2012-12-14 11:35:00
6:55 AM,30.2,23.5,76,30.23,4.0,South,5.8,-,N/A,Snow,Light Snow,190,2012-12-14 11:55:00
7:35 AM,31.5,23.7,73,30.23,7.0,SSW,6.9,-,N/A,,Clear,200,2012-12-14 12:35:00
8:15 AM,30.4,23.7,76,30.23,4.0,South,4.6,-,N/A,Snow,Light Snow,190,2012-12-14 13:15:00
8:35 AM,30.9,23.7,75,30.23,3.0,South,5.8,-,N/A,Snow,Light Snow,190,2012-12-14 13:35:00
8:55 AM,31.8,23.9,73,30.23,3.0,South,6.9,-,N/A,Snow,Light Snow,190,2012-12-14 13:55:00
9:15 AM,32.2,24.3,73,30.23,4.0,SSW,5.8,-,N/A,,Haze,200,2012-12-14 14:15:00
9:35 AM,33.1,25.2,73,30.24,4.0,SSW,5.8,-,N/A,Snow,Light Snow,200,2012-12-14 14:35:00
9:55 AM,34.2,25.7,71,30.24,4.0,SSW,6.9,-,N/A,,Haze,210,2012-12-14 14:55:00
10:15 AM,35.4,26.2,69,30.25,4.0,SSW,8.1,-,N/A,,Haze,210,2012-12-14 15:15:00
10:35 AM,36.3,26.6,68,30.26,5.0,SSW,8.1,-,N/A,,Haze,210,2012-12-14 15:35:00
10:55 AM,37.6,27.3,66,30.26,7.0,SW,6.9,-,N/A,,Clear,220,2012-12-14 15:55:00
11:15 AM,38.8,27.5,64,30.26,7.0,SW,8.1,-,N/A,,Clear,220,2012-12-14 16:15:00
11:35 AM,39.7,27.9,63,30.26,7.0,SW,8.1,-,N/A,,Clear,230,2012-12-14 16:35:00
11:55 AM,40.5,28.8,63,30.25,10.0,SW,6.9,-,N/A,,Clear,230,2012-12-14 16:55:00
12:15 PM,42.1,29.8,62,30.23,7.0,SW,6.9,-,N/A,,Clear,230,2012-12-14 17:15:00
12:35 PM,43.2,30.7,62,30.22,5.0,SW,5.8,-,N/A,,Haze,220,2012-12-14 17:35:00
12:55 PM,43.7,31.1,61,30.21,4.0,SSW,5.8,-,N/A,,Haze,210,2012-12-14 17:55:00
1:15 PM,44.4,30.9,59,30.20,7.0,SSW,4.6,-,N/A,,Clear,200,2012-12-14 18:15:00
1:35 PM,45.0,30.7,57,30.18,7.0,South,4.6,-,N/A,,Clear,170,2012-12-14 18:35:00
1:55 PM,45.9,30.9,56,30.18,4.0,SSW,4.6,-,N/A,,Haze,210,2012-12-14 18:55:00
2:15 PM,46.8,30.9,54,30.18,4.0,SSW,5.8,-,N/A,,Haze,210,2012-12-14 19:15:00
2:35 PM,47.3,30.9,53,30.17,7.0,SSW,4.6,-,N/A,,Clear,200,2012-12-14 19:35:00
2:55 PM,47.5,31.8,55,30.17,5.0,SW,4.6,-,N/A,,Haze,220,2012-12-14 19:55:00
3:15 PM,47.3,31.3,54,30.16,10.0,South,4.6,-,N/A,,Clear,190,2012-12-14 20:15:00
3:35 PM,47.3,31.6,55,30.17,7.0,SW,4.6,-,N/A,,Clear,220,2012-12-14 20:35:00
3:55 PM,47.3,32.2,56,30.17,10.0,SSW,4.6,-,N/A,,Clear,200,2012-12-14 20:55:00
4:15 PM,46.8,32.2,57,30.17,7.0,South,3.5,-,N/A,,Clear,190,2012-12-14 21:15:00
4:35 PM,46.0,32.2,58,30.17,10.0,South,3.5,-,N/A,,Clear,180,2012-12-14 21:35:00
4:55 PM,44.8,32.2,61,30.16,10.0,South,4.6,-,N/A,,Clear,170,2012-12-14 21:55:00
5:15 PM,43.3,32.2,65,30.16,5.0,South,5.8,-,N/A,,Haze,170,2012-12-14 22:15:00
5:35 PM,42.4,32.0,67,30.17,4.0,South,4.6,-,N/A,,Haze,170,2012-12-14 22:35:00
5:55 PM,41.9,31.5,66,30.17,10.0,South,5.8,-,N/A,,Clear,170,2012-12-14 22:55:00
6:15 PM,41.5,31.3,67,30.16,7.0,SSE,3.5,-,N/A,,Clear,160,2012-12-14 23:15:00
6:35 PM,39.7,31.3,72,30.17,10.0,SE,4.6,-,N/A,,Clear,140,2012-12-14 23:35:00
6:55 PM,39.0,30.9,73,30.18,10.0,South,4.6,-,N/A,,Clear,170,2012-12-14 23:55:00
7:15 PM,39.9,30.9,70,30.17,10.0,South,4.6,-,N/A,,Clear,170,2012-12-15 00:15:00
7:35 PM,40.6,30.2,66,30.18,10.0,SSE,4.6,-,N/A,,Clear,160,2012-12-15 00:35:00
7:55 PM,40.1,30.2,68,30.18,10.0,SSE,4.6,-,N/A,,Clear,150,2012-12-15 00:55:00
8:15 PM,38.8,30.2,71,30.17,10.0,SSE,4.6,-,N/A,,Clear,150,2012-12-15 01:15:00
8:35 PM,38.3,30.2,73,30.16,10.0,South,6.9,-,N/A,,Clear,170,2012-12-15 01:35:00
8:55 PM,39.2,30.2,70,30.16,10.0,SSE,6.9,-,N/A,,Clear,160,2012-12-15 01:55:00
9:15 PM,39.6,30.0,69,30.15,10.0,South,6.9,-,N/A,,Clear,170,2012-12-15 02:15:00
9:35 PM,39.7,29.8,68,30.15,10.0,South,5.8,-,N/A,,Clear,170,2012-12-15 02:35:00
9:55 PM,39.9,29.8,67,30.14,10.0,South,5.8,-,N/A,,Clear,170,2012-12-15 02:55:00
10:15 PM,39.7,29.8,68,30.14,10.0,South,6.9,-,N/A,,Clear,170,2012-12-15 03:15:00
10:35 PM,39.9,29.7,67,30.14,10.0,South,5.8,-,N/A,,Clear,170,2012-12-15 03:35:00
10:55 PM,39.4,29.7,68,30.14,10.0,South,4.6,-,N/A,,Clear,170,2012-12-15 03:55:00
11:15 PM,39.2,29.7,69,30.14,10.0,South,6.9,-,N/A,,Clear,170,2012-12-15 04:15:00
11:35 PM,39.4,29.3,67,30.12,7.0,SSE,5.8,-,N/A,,Unknown,150,2012-12-15 04:35:00
11:55 PM,39.7,29.3,66,30.13,7.0,SSE,6.9,-,N/A,,Clear,160,2012-12-15 04:55:00